This is the latest recevied weather packets stored in our database for station/object N0NAI-13. If no packets are shown the sender has not sent any weather packets the latest 10 day(s).
| Time | Temp. | Humidity | Pressure | Rain* | Wind** | Luminosity | Snow |
|---|---|---|---|---|---|---|---|
| 1778127320 | -1.11° C | 78% | 1017.4 hPa | 0 mm | - | - | - |
| 1778126723 | -0.56° C | 77% | 1017.4 hPa | 0 mm | - | - | - |
| 1778126125 | 0° C | 76% | 1017.6 hPa | 0 mm | - | - | - |
| 1778125529 | 0° C | 76% | 1017.6 hPa | 0 mm | - | - | - |
| 1778124931 | 0.56° C | 76% | 1017.7 hPa | 0 mm | - | - | - |
| 1778124316 | 0.56° C | 75% | 1017.9 hPa | 0 mm | - | - | - |
| 1778123719 | 0.56° C | 73% | 1017.9 hPa | 0 mm | - | - | - |
| 1778123122 | 1.11° C | 74% | 1017.9 hPa | 0 mm | - | - | - |
| 1778122525 | 1.11° C | 74% | 1017.9 hPa | 0 mm | - | - | - |
| 1778121928 | 1.67° C | 71% | 1018 hPa | 0 mm | - | - | - |
| 1778121330 | 1.67° C | 71% | 1018.1 hPa | 0 mm | - | - | - |
| 1778120716 | 2.22° C | 69% | 1018.1 hPa | 0 mm | - | - | - |
| 1778120118 | 2.78° C | 67% | 1017.9 hPa | 0 mm | - | - | - |
| 1778119521 | 2.78° C | 67% | 1017.9 hPa | 0 mm | - | - | - |
| 1778118918 | 3.33° C | 65% | 1017.7 hPa | 0 mm | - | - | - |
| 1778118327 | 3.89° C | 63% | 1017.7 hPa | 0 mm | - | - | - |
| 1778117730 | 5° C | 60% | 1017.6 hPa | 0 mm | - | - | - |
| 1778117132 | 5.56° C | 59% | 1017.6 hPa | 0 mm | - | - | - |
| 1778116517 | 6.67° C | 56% | 1017.6 hPa | 0 mm | - | - | - |
| 1778115920 | 7.22° C | 53% | 1017.6 hPa | 0 mm | - | - | - |
| 1778115323 | 7.22° C | 52% | 1017.6 hPa | 0 mm | - | - | - |
| 1778114726 | 8.33° C | 49% | 1017.6 hPa | 0 mm | - | - | - |
| 1778114129 | 8.89° C | 47% | 1017.6 hPa | 0 mm | - | - | - |
| 1778113532 | 9.44° C | 46% | 1017.6 hPa | 0 mm | - | - | - |
| 1778112917 | 10° C | 45% | 1017.6 hPa | 0 mm | - | - | - |
* Rain latest hour (hover to see other rain measurements)
** Current wind speed in m/s (hover to see current wind gust speed)